Location: Amsterdam
(42.9386°N, 74.1886°W)
Time: 14:24:54
(UTC-04:00)

OTV 5 (USA 277) - Pass Details

Date: 02 April 2019
Orbit: 309 x 326 km, 54.5° (Epoch: 21 April)

Event Time Altitude Azimuth Distance (km) Brightness Sun altitude
Exits shadow 04:38:56 11° 128° (SE) 1,132 ? -21.4°
Drops below altitude 10° 04:39:51 10° 107° (ESE) 1,203 ? -21.2°
Sets 04:42:48 0° 71° (ENE) 2,034 ? -20.8°
